N2016 KPIE-KPIE

Flight info

Callsign N2016
Flight time 0h 4m
Altitude 3000
Route CIRCUITS
Aircraft C152/L-SFG/C

Departure

Time 2026-04-17 19:53
Airport St. Petersburg Clearwater International Airport (KPIE)

Arrival

Time 2026-04-17 19:58
Airport St. Petersburg Clearwater International Airport (KPIE)
Time Latitude Longitude Altitude Speed Heading
2026-04-17 19:21 27.90216 -82.68966 18 ft 0 kts 79°
2026-04-17 19:50 27.90212 -82.68954 18 ft 5 kts 120°
2026-04-17 19:50 27.90193 -82.68920 18 ft 0 kts 125°
2026-04-17 19:51 27.90187 -82.68894 18 ft 7 kts 78°
2026-04-17 19:51 27.90190 -82.68869 18 ft 6 kts 87°
2026-04-17 19:51 27.90182 -82.68857 17 ft 0 kts 192°
2026-04-17 19:52 27.90146 -82.68862 17 ft 10 kts 184°
2026-04-17 19:52 27.90129 -82.68795 16 ft 9 kts 41°
2026-04-17 19:52 27.90313 -82.68622 16 ft 61 kts 40°
2026-04-17 19:53 27.90679 -82.68267 175 ft 71 kts 40°
2026-04-17 19:53 27.91056 -82.67911 446 ft 70 kts 37°
2026-04-17 19:53 27.91406 -82.67560 744 ft 67 kts 45°
2026-04-17 19:53 27.91452 -82.67019 862 ft 81 kts 119°
2026-04-17 19:54 27.91099 -82.66460 935 ft 91 kts 127°
2026-04-17 19:54 27.90633 -82.65997 1075 ft 84 kts 171°
2026-04-17 19:54 27.90053 -82.66132 1102 ft 94 kts 206°
2026-04-17 19:54 27.89482 -82.66565 1080 ft 98 kts 219°
2026-04-17 19:55 27.89023 -82.67043 1120 ft 86 kts 224°
2026-04-17 19:55 27.88601 -82.67512 1077 ft 85 kts 225°
2026-04-17 19:55 27.88193 -82.68026 1047 ft 89 kts 233°
2026-04-17 19:55 27.87830 -82.68579 1042 ft 87 kts 234°
2026-04-17 19:56 27.87474 -82.69148 1006 ft 88 kts 236°
2026-04-17 19:56 27.87349 -82.69775 969 ft 84 kts 292°
2026-04-17 19:56 27.87734 -82.70229 900 ft 80 kts 332°
2026-04-17 19:56 27.88278 -82.70362 789 ft 79 kts
2026-04-17 19:57 27.88745 -82.70132 626 ft 66 kts 36°
2026-04-17 19:57 27.89068 -82.69817 437 ft 59 kts 38°
2026-04-17 19:57 27.89388 -82.69508 301 ft 62 kts 39°
2026-04-17 19:57 27.89689 -82.69212 210 ft 53 kts 39°
2026-04-17 19:58 27.89986 -82.68935 53 ft 56 kts 39°
2026-04-17 19:58 27.90231 -82.68699 20 ft 49 kts 40°
2026-04-17 19:58 27.90510 -82.68421 144 ft 59 kts 43°
2026-04-17 19:58 27.90838 -82.68103 319 ft 69 kts 36°
2026-04-17 19:59 27.91236 -82.67770 573 ft 72 kts 35°
2026-04-17 19:59 27.91649 -82.67400 760 ft 77 kts 37°
2026-04-17 19:59 27.92049 -82.67007 920 ft 77 kts 51°
2026-04-17 19:59 27.92088 -82.66413 1044 ft 83 kts 116°
2026-04-17 20:00 27.91718 -82.65867 1094 ft 92 kts 144°
2026-04-17 20:00 27.91102 -82.65788 1126 ft 93 kts 195°
2026-04-17 20:00 27.90530 -82.66109 1136 ft 98 kts 211°
2026-04-17 20:00 27.89949 -82.66542 1097 ft 101 kts 215°
2026-04-17 20:01 27.89406 -82.67020 1080 ft 100 kts 219°
2026-04-17 20:01 27.88868 -82.67522 998 ft 100 kts 220°
2026-04-17 20:01 27.88362 -82.68017 906 ft 93 kts 232°
2026-04-17 20:01 27.88309 -82.68660 735 ft 83 kts 300°
2026-04-17 20:02 27.88566 -82.69194 640 ft 77 kts 303°
2026-04-17 20:02 27.88949 -82.69576 526 ft 77 kts 350°
2026-04-17 20:02 27.89428 -82.69443 329 ft 66 kts 29°
2026-04-17 20:02 27.89761 -82.69133 173 ft 60 kts 34°
2026-04-17 20:03 27.90070 -82.68847 28 ft 52 kts 33°
2026-04-17 20:03 27.90313 -82.68626 16 ft 57 kts 41°
2026-04-17 20:03 27.90648 -82.68286 161 ft 68 kts 28°
2026-04-17 20:03 27.91033 -82.67966 374 ft 72 kts 31°
2026-04-17 20:04 27.91418 -82.67588 594 ft 74 kts 34°
2026-04-17 20:04 27.91668 -82.67099 811 ft 77 kts 89°
2026-04-17 20:04 27.91383 -82.66580 950 ft 85 kts 135°
2026-04-17 20:04 27.90860 -82.66282 1009 ft 90 kts 189°
2026-04-17 20:05 27.90314 -82.66684 977 ft 99 kts 223°
2026-04-17 20:05 27.89815 -82.67232 986 ft 100 kts 226°
2026-04-17 20:05 27.89331 -82.67801 949 ft 101 kts 227°
2026-04-17 20:05 27.88867 -82.68376 875 ft 90 kts 237°
2026-04-17 20:06 27.88555 -82.68929 763 ft 82 kts 269°
2026-04-17 20:06 27.88774 -82.69482 655 ft 78 kts 316°
2026-04-17 20:06 27.89252 -82.69609 449 ft 78 kts 25°
2026-04-17 20:06 27.89636 -82.69246 211 ft 63 kts 34°
2026-04-17 20:07 27.89979 -82.68937 57 ft 62 kts 36°
2026-04-17 20:07 27.90166 -82.68762 16 ft 42 kts 35°
2026-04-17 20:07 27.90460 -82.68462 75 ft 68 kts 38°
2026-04-17 20:07 27.90825 -82.68116 282 ft 71 kts 31°
2026-04-17 20:08 27.91223 -82.67798 544 ft 70 kts 27°
2026-04-17 20:08 27.91576 -82.67415 743 ft 78 kts 69°
2026-04-17 20:08 27.91443 -82.66785 859 ft 93 kts 126°
2026-04-17 20:08 27.90925 -82.66385 957 ft 95 kts 181°
2026-04-17 20:09 27.90371 -82.66755 987 ft 97 kts 223°
2026-04-17 20:09 27.89846 -82.67248 987 ft 99 kts 220°
2026-04-17 20:09 27.89328 -82.67752 973 ft 97 kts 222°
2026-04-17 20:09 27.88843 -82.68277 916 ft 95 kts 233°
2026-04-17 20:10 27.88702 -82.68918 747 ft 73 kts 294°
2026-04-17 20:10 27.88949 -82.69430 545 ft 77 kts 306°
2026-04-17 20:10 27.89328 -82.69660 415 ft 63 kts 33°
2026-04-17 20:10 27.89619 -82.69270 221 ft 63 kts 33°
2026-04-17 20:11 27.89957 -82.68950 82 ft 64 kts 33°
2026-04-17 20:11 27.90247 -82.68689 16 ft 46 kts 39°
2026-04-17 20:11 27.90538 -82.68382 125 ft 60 kts 34°
2026-04-17 20:11 27.90879 -82.68087 352 ft 63 kts 30°
2026-04-17 20:12 27.91237 -82.67749 555 ft 73 kts 33°
2026-04-17 20:12 27.91545 -82.67322 766 ft 77 kts 86°
2026-04-17 20:12 27.91256 -82.66761 848 ft 90 kts 133°
2026-04-17 20:12 27.90731 -82.66501 973 ft 85 kts 199°
2026-04-17 20:13 27.90279 -82.66938 951 ft 87 kts 226°
2026-04-17 20:13 27.89869 -82.67420 976 ft 82 kts 228°
2026-04-17 20:13 27.89485 -82.67901 911 ft 85 kts 227°
2026-04-17 20:13 27.89059 -82.68396 748 ft 87 kts 237°
2026-04-17 20:14 27.89039 -82.68980 515 ft 77 kts 305°
2026-04-17 20:14 27.89392 -82.69307 323 ft 67 kts
2026-04-17 20:14 27.89789 -82.69108 132 ft 59 kts 38°
2026-04-17 20:14 27.90089 -82.68831 20 ft 49 kts 35°
2026-04-17 20:15 27.90354 -82.68576 39 ft 64 kts 35°
2026-04-17 20:15 27.90679 -82.68248 251 ft 65 kts 29°
2026-04-17 20:15 27.91052 -82.67937 507 ft 67 kts 33°
2026-04-17 20:15 27.91268 -82.67485 725 ft 78 kts 105°
2026-04-17 20:16 27.90979 -82.66928 886 ft 84 kts 124°
2026-04-17 20:16 27.90521 -82.66669 1028 ft 86 kts 207°
2026-04-17 20:16 27.90026 -82.67136 1004 ft 95 kts 226°
2026-04-17 20:16 27.89570 -82.67664 1024 ft 94 kts 227°
2026-04-17 20:17 27.89130 -82.68206 1008 ft 94 kts 233°
2026-04-17 20:17 27.88927 -82.68837 725 ft 83 kts 278°
2026-04-17 20:17 27.89101 -82.69413 470 ft 73 kts 313°
2026-04-17 20:17 27.89450 -82.69447 261 ft 65 kts 40°
2026-04-17 20:18 27.89776 -82.69126 125 ft 59 kts 33°
2026-04-17 20:18 27.90085 -82.68837 25 ft 50 kts 33°
2026-04-17 20:18 27.90362 -82.68568 33 ft 65 kts 37°
2026-04-17 20:18 27.90714 -82.68231 251 ft 66 kts 31°
2026-04-17 20:19 27.91070 -82.67911 515 ft 66 kts 30°
2026-04-17 20:19 27.91385 -82.67504 704 ft 79 kts 69°
2026-04-17 20:19 27.91219 -82.66900 835 ft 89 kts 131°
2026-04-17 20:19 27.90732 -82.66542 974 ft 90 kts 188°
2026-04-17 20:20 27.90138 -82.66856 992 ft 97 kts 219°
2026-04-17 20:20 27.89662 -82.67376 1042 ft 93 kts 224°
2026-04-17 20:20 27.89204 -82.67897 1022 ft 97 kts 226°
2026-04-17 20:20 27.88745 -82.68469 978 ft 101 kts 229°
2026-04-17 20:21 27.88377 -82.69124 959 ft 91 kts 269°
2026-04-17 20:21 27.88664 -82.69635 748 ft 73 kts 323°
2026-04-17 20:21 27.89091 -82.69761 505 ft 69 kts 18°
2026-04-17 20:21 27.89458 -82.69431 290 ft 67 kts 34°
2026-04-17 20:22 27.89822 -82.69083 114 ft 67 kts 32°
2026-04-17 20:22 27.90139 -82.68784 17 ft 43 kts 31°
2026-04-17 20:22 27.90424 -82.68506 51 ft 69 kts 40°
2026-04-17 20:22 27.90786 -82.68164 273 ft 69 kts 28°
2026-04-17 20:23 27.91180 -82.67859 511 ft 69 kts 30°
2026-04-17 20:23 27.91531 -82.67471 733 ft 73 kts 64°
2026-04-17 20:23 27.91425 -82.66916 906 ft 84 kts 126°
2026-04-17 20:23 27.90938 -82.66699 1016 ft 87 kts 202°
2026-04-17 20:24 27.90395 -82.67084 980 ft 95 kts 217°
2026-04-17 20:24 27.89850 -82.67547 932 ft 97 kts 220°
2026-04-17 20:24 27.89371 -82.68002 800 ft 94 kts 224°
2026-04-17 20:24 27.88915 -82.68494 652 ft 82 kts 253°
2026-04-17 20:25 27.89072 -82.69039 405 ft 78 kts 310°
2026-04-17 20:25 27.89467 -82.69359 308 ft 71 kts
2026-04-17 20:25 27.89832 -82.69072 105 ft 59 kts 33°
2026-04-17 20:25 27.90122 -82.68801 16 ft 44 kts 31°
2026-04-17 20:26 27.90267 -82.68710 17 ft 17 kts 350°
2026-04-17 20:26 27.90309 -82.68774 17 ft 14 kts 261°
2026-04-17 20:26 27.90296 -82.68859 18 ft 9 kts 226°
2026-04-17 20:26 27.90263 -82.68911 18 ft 8 kts 266°
2026-04-17 20:27 27.90277 -82.68956 18 ft 2 kts 256°
2026-04-17 20:27 27.90276 -82.68958 18 ft 0 kts 262°